ESSB

Stockholm/Bromma

Airport
ICAO code
ESSB
Summary
ICAO Region
EUR
ICAO Territory
Location

Stockholm Municipality,

Elevation
47 ft
Coordinates
59° 21' 16" N , 17° 56' 30" E
KCC
Metar
ESSB 221820Z 14015KT 1900 BR OVC002 03/03 Q0992

Description

Stockholm-Bromma Airport is an airport in Stockholm, Sweden. Stockholm-Bromma Airport is located 4 nm west northwest of downtown Stockholm and is the closest to the city.

Climatology

Temperate Marine climate/Oceanic climate (Köppen climate classification Cfb). Moderately cool summer and comparatively warm winter.

Runways

Designator Length Width Surface Rops
12/30 1668 45 ASP Yes/Yes

Airport map

Aerial View

SKYbrary Partners:

Safety knowledge contributed by: